Regional Weather Roundup
Issued by NWS

Home | Current Version | Previous Version | Graphics & Text | Print | Product List | Glossary Off
Versions: 1 2 3 4 5 6 7 8 9 10 11 12 13 14 15 16 17 18 19 20 21 22 23 24 25 26 27 28 29 30 31 32 33 34 35 36 37 38 39 40 41 42 43 44 45 46 47 48 49 50

000
ASUS43 KDMX 290903
RWRIA

WEATHER ROUNDUP FOR IOWA
NATIONAL WEATHER SERVICE DES MOINES IA
400 AM CDT SUN MAY 29 2016

NOTE: "FAIR" INDICATES FEW OR NO CLOUDS BELOW 12,000 FEET WITH NO
SIGNIFICANT WEATHER AND/OR OBSTRUCTIONS TO VISIBILITY.

* - THESE STATIONS ARE NOT NWS STATIONS...THUS NOT UNDER NWS
QUALITY CONTROL.  THEY ALSO DO NOT REPORT WEATHER SUCH
AS PRECIPITATION OR FOG.

IAZ001>003-012>014-020>022-031>034-043>046-291000-
   NORTHWEST IOWA

CITY           SKY/WX    TMP DP  RH WIND       PRES   REMARKS
CARROLL *      PTCLDY    59  57  94 W8        29.98R
CHEROKEE *     CLEAR     56  56 100 CALM      29.97R
DENISON *      CLEAR     55  55 100 S3        29.97R
LE MARS *      CLEAR     57  57 100 W5        29.98R
ORANGE CITY *  CLEAR     55  55 100 NW5       29.97R
SHELDON *      CLEAR     57  57 100 W5        29.95R
SIOUX CITY     CLEAR     56  54  93 W6        29.99R
SPENCER        PTCLDY    58  56  93 W8        29.95S
STORM LAKE *   PTCLDY    57  57 100 W9        29.97S
$$

IAZ055>058-069>071-079>083-090>094-291000-
   SOUTHWEST IOWA

CITY           SKY/WX    TMP DP  RH WIND       PRES   REMARKS
ATLANTIC *     CLEAR     55  55 100 SW3       30.00S
AUDUBON *      CLEAR     55  54  94 CALM      30.01R
CLARINDA *       N/A     55  55 100 MISG      30.03R
COUNCIL BLFS * CLEAR     57  55  94 SW5       30.00S
CRESTON *      CLEAR     55  54  94 W8        30.01S
HARLAN  *      CLEAR     55  55 100 CALM      30.03R
LAMONI         CLEAR     59  56  89 W5        30.01R
RED OAK *      PTCLDY    55  54  94 CALM      30.01R FOG
SHENANDOAH *   CLEAR     59  59 100 CALM      30.02R
$$

IAZ047>049-059>061-072>074-084-291000-
   CENTRAL IOWA

CITY           SKY/WX    TMP DP  RH WIND       PRES   REMARKS
AMES           CLEAR     62  59  90 NW12      29.95R
ANKENY *       CLEAR     61  59  94 W8        29.97R
BOONE *        MOCLDY    61  59  94 W10G17    29.95S
CHARITON *     CLEAR     59  57  94 W6        29.99S
DES MOINES     CLEAR     60  55  83 W5        29.97R
GRINNELL*      CLOUDY    61  57  88 SW8       29.96R
KNOXVILLE *    PTCLDY    61  57  88 W8        29.97R
MARSHALLTOWN   CLOUDY    62  61  96 W12       29.93R
NEWTON *       CLOUDY    61  61 100 W8        29.96R
PELLA *        CLOUDY    63  57  81 W13G18    29.98S
PERRY *          N/A     61  59  94 W9        29.98R
$$

IAZ004>006-015-016-023>025-035-036-291000-
   NORTH CENTRAL IOWA

CITY           SKY/WX    TMP DP  RH WIND       PRES   REMARKS
ALGONA *       CLEAR     59  59 100 W8        29.94S
CLARION *      CLOUDY    61  61 100 W13       29.94S
ESTHERVILLE    CLEAR     58  57  97 W10       29.94R
FORT DODGE *   MOCLDY    61  55  82 W6        29.96R
MASON CITY     CLOUDY    61  60  97 W13       29.93R
FOREST CITY *  PTCLDY    59  59 100 W7        29.92R
WEBSTER CITY * PTCLDY    61  61 100 W10       29.94R
IOWA FALLS *   MOCLDY    63  61  94 W12       29.94R
$$

IAZ007>011-017>019-026>030-037>042-050>054-066-291000-
   NORTHEAST IOWA

CITY           SKY/WX    TMP DP  RH WIND       PRES   REMARKS
CEDAR RAPIDS   CLEAR     63  60  90 SW13      29.91S
CHARLES CITY * CLOUDY    63  63 100 W12       29.89R
CLINTON *      CLEAR     64  60  87 SW10      29.93S
DECORAH *      CLOUDY    61  61 100 VRB5G12   29.85S
DUBUQUE        CLEAR     62  58  86 SW12      29.89F
MONTICELLO *   CLEAR     64  59  82 SW10      29.90S
OELWEIN *      CLOUDY    63  63 100 W10       29.89R
WATERLOO       CLOUDY    62  59  90 W8        29.89R
$$

IAZ064-065-067-068-078-291000-
   EAST CENTRAL IOWA

CITY           SKY/WX    TMP DP  RH WIND       PRES   REMARKS
DAVENPORT      CLEAR     65  58  78 SW8       29.94S
IOWA CITY      CLEAR     63  59  87 SW7       29.94S
MT. PLEASANT * CLEAR     66  61  82 SW8       29.96S
MUSCATINE *    CLEAR     66  59  77 SW10      29.94R
QUAD CITIES    CLEAR     67  58  72 SW10G18   29.93S
$$

IAZ062-063-075>077-085>089-095>099-291000-
   SOUTHEAST IOWA

CITY           SKY/WX    TMP DP  RH WIND       PRES   REMARKS
BURLINGTON     CLEAR     64  60  87 SW8       29.96S
FAIRFIELD *      N/A    N/A N/A N/A MISG        N/A
FORT MADISON * CLEAR     64  61  88 SW6       29.98S
KEOKUK *       CLEAR     63  59  88 SW7       29.97S
OSKALOOSA *      N/A     63  57  82 W15       29.97R
OTTUMWA        CLEAR     63  58  83 W10       29.97R
WASHINGTON *   PTCLDY    63 N/A N/A SW10G22   29.96S
$$

ABBREVIATIONS USED IN REMARKS
   TC - TEMPERATURES IN CELSIUS
  WCI - WIND CHILL INDEX
   HX - HEAT INDEX
  VSB - VISIBILITY
$$





USA.gov is the U.S. government's official web portal to all federal, state and local government web resources and services.